Location: Natural Bridges National Monument
(37.6093°N, 109.9767°W)
Time: 01:34:24
(UTC-07:00)

N. Korean satellite - Visible Passes

Search period start: 23 January 2020 00:00
Search period end: 02 February 2020 00:00
Orbit: 454 x 507 km, 97.2° (Epoch: 22 January)

Date Brightness Start Highest point End Pass type
(mag) Time Alt. Az. Time Alt. Az. Time Alt. Az.
23 Jan 7.2 05:55:28 10° NNE 05:59:00 58° E 06:02:33 10° S visible
23 Jan 9.3 18:02:49 10° SSW 18:05:39 24° W 18:08:29 10° NW visible
24 Jan 8.9 05:30:24 10° NE 05:33:27 26° E 05:36:30 10° SSE visible
25 Jan 10.0 05:06:16 10° ENE 05:07:48 12° E 05:09:22 10° ESE visible
25 Jan 7.2 06:38:01 10° N 06:41:17 34° WNW 06:44:35 10° SW visible
26 Jan 6.4 06:12:16 10° N 06:15:52 78° WNW 06:19:29 10° SSW visible
26 Jan 9.8 18:20:39 10° SW 18:22:35 14° W 18:24:32 10° WNW visible
27 Jan 7.8 05:46:54 10° NNE 05:50:22 44° E 05:53:51 10° S visible
28 Jan 9.3 05:22:01 10° NE 05:24:47 20° E 05:27:34 10° SE visible
28 Jan 7.9 06:55:17 10° NNW 06:58:03 21° WNW 07:00:49 10° WSW visible
29 Jan 6.9 06:29:13 10° N 06:32:41 44° WNW 06:36:10 10° SSW visible
30 Jan 6.7 06:03:36 10° NNE 06:07:14 79° E 06:10:54 10° S visible
30 Jan 9.7 18:11:24 10° SW 18:13:52 19° W 18:16:21 10° NW visible
31 Jan 8.4 05:38:21 10° NNE 05:41:42 34° E 05:45:04 10° SSE visible
01 Feb 9.7 05:13:43 10° NE 05:16:05 16° E 05:18:27 10° SE visible
01 Feb 7.6 06:46:22 10° NNW 06:49:27 27° WNW 06:52:34 10° SW visible
